Location: Poughquag
(41.6090°N, 73.6820°W)
Time: 11:48:11
(UTC-04:00)

Transit 2A Rocket - Pass Details

Date: 07 June 2020
Orbit: 584 x 919 km, 66.7° (Epoch: 06 July)

Event Time Altitude Azimuth Distance (km) Brightness Sun altitude
Rises 23:17:52 0° 271° (W) 3,197 8.5 -21.8°
Reaches altitude 10° 23:21:37 10° 299° (WNW) 2,357 8.2 -22.1°
Maximum altitude 23:24:06 13° 327° (NNW) 2,197 8.4 -22.2°
Drops below altitude 10° 23:26:41 10° 354° (N) 2,461 8.7 -22.4°
Sets 23:30:48 0° 21° (NNE) 3,470 9.1 -22.7°
